TimeEST,TemperatureF,Dew PointF,Humidity,Sea Level PressureIn,VisibilityMPH,Wind Direction,Wind SpeedMPH,Gust SpeedMPH,PrecipitationIn,Events,Conditions,WindDirDegrees,DateUTC
12:51 AM,39.0,28.0,65,29.84,10.0,NNW,10.4,-,N/A,,Mostly Cloudy,340,2012-11-09 05:51:00
1:51 AM,37.0,27.0,67,29.85,10.0,NNW,12.7,-,N/A,,Partly Cloudy,330,2012-11-09 06:51:00
2:51 AM,37.0,27.0,67,29.87,10.0,NNW,9.2,-,N/A,,Clear,330,2012-11-09 07:51:00
3:51 AM,37.0,26.1,65,29.89,10.0,NNW,9.2,-,N/A,,Clear,330,2012-11-09 08:51:00
4:51 AM,36.0,24.1,62,29.91,10.0,NNW,12.7,18.4,N/A,,Clear,330,2012-11-09 09:51:00
5:51 AM,35.1,23.0,61,29.94,10.0,NW,10.4,-,N/A,,Partly Cloudy,320,2012-11-09 10:51:00
6:51 AM,35.6,23.0,60,29.95,10.0,NNW,8.1,-,N/A,,Partly Cloudy,340,2012-11-09 11:51:00
7:51 AM,37.9,21.9,53,29.98,10.0,North,4.6,-,N/A,,Partly Cloudy,360,2012-11-09 12:51:00
8:51 AM,41.0,21.0,45,29.99,10.0,NNW,12.7,-,N/A,,Partly Cloudy,340,2012-11-09 13:51:00
9:51 AM,46.4,19.4,34,29.98,10.0,North,12.7,19.6,N/A,,Partly Cloudy,350,2012-11-09 14:51:00
10:51 AM,48.0,18.0,30,30.00,10.0,NW,12.7,19.6,N/A,,Scattered Clouds,320,2012-11-09 15:51:00
11:51 AM,51.1,17.1,26,29.99,10.0,WNW,16.1,-,N/A,,Partly Cloudy,300,2012-11-09 16:51:00
12:51 PM,53.1,18.0,25,29.99,10.0,WNW,13.8,-,N/A,,Partly Cloudy,300,2012-11-09 17:51:00
1:51 PM,52.0,18.0,26,30.00,10.0,NW,12.7,-,N/A,,Partly Cloudy,320,2012-11-09 18:51:00
2:51 PM,53.1,19.0,26,30.00,10.0,NW,11.5,-,N/A,,Partly Cloudy,310,2012-11-09 19:51:00
3:51 PM,50.0,19.0,29,30.02,10.0,NW,16.1,21.9,N/A,,Partly Cloudy,320,2012-11-09 20:51:00
4:51 PM,46.9,19.0,33,30.04,10.0,NW,13.8,-,N/A,,Partly Cloudy,310,2012-11-09 21:51:00
5:51 PM,45.0,19.9,37,30.08,10.0,NW,10.4,-,N/A,,Clear,310,2012-11-09 22:51:00
6:51 PM,45.0,24.1,44,30.10,10.0,NW,6.9,-,N/A,,Clear,320,2012-11-09 23:51:00
7:51 PM,44.1,24.1,45,30.11,10.0,Calm,Calm,-,N/A,,Clear,0,2012-11-10 00:51:00
8:51 PM,43.0,27.0,53,30.12,10.0,Calm,Calm,-,N/A,,Mostly Cloudy,0,2012-11-10 01:51:00
9:51 PM,43.0,32.0,65,30.12,10.0,WNW,5.8,-,N/A,,Mostly Cloudy,300,2012-11-10 02:51:00
10:51 PM,46.0,34.0,63,30.14,10.0,West,6.9,-,N/A,,Overcast,280,2012-11-10 03:51:00
11:51 PM,45.0,34.0,65,30.14,9.0,West,3.5,-,N/A,,Overcast,280,2012-11-10 04:51:00